Lancaster, CA

6:33 PM PST on November 14, 2019 (GMT -0800)
Gen Fox

Weather History for KWJF - May, 2019

Change the Weather History Date:

Sunday, May 26, 2019

  Actual Average Record
Temperature  
Mean Temperature 54 °F 71 °F  
Max Temperature 59 °F 85 °F 104 °F (1974)
Min Temperature 49 °F 57 °F 37 °F (1953)
Degree Days  
Heating Degree Days 11    
Month to date heating degree days 131  
Since 1 July heating degree days 3031  
Cooling Degree Days 0    
Month to date cooling degree days 23  
Year to date cooling degree days 67  
Growing Degree Days 4 (Base 50)    
Moisture  
Dew Point 44 °F    
Average Humidity 69    
Maximum Humidity 80    
Minimum Humidity 57    
Precipitation  
Precipitation 0.00 in 0.00 in 0.28 in (1950)
Month to date precipitation 0.53 0.08  
Year to date precipitation 5.47 4.85  
Snow  
Snow 0.00 in - 0.00 in ()
Month to date snowfall 0.0  
Since 1 July snowfall 0.0  
Snow Depth 0.00 in    
Sea Level Pressure  
Sea Level Pressure 29.85 in    
Wind  
Wind Speed 20 mph (WSW)    
Max Wind Speed 31 mph    
Max Gust Speed 42 mph    
Visibility 10 miles    
Events      
T = Trace of Precipitation, MM = Missing Value Source: NWS Daily Summary

Daily Weather History Graph

Daily Weather History Graph

Search for Another Location

Airport or City:

Astronomy

May. 26, 2019 Rise Set
Actual Time 5:43 AM PDT 7:57 PM PDT
Civil Twilight 5:14 AM PDT 8:25 PM PDT
Nautical Twilight 4:39 AM PDT 9:00 PM PDT
Astronomical Twilight 4:01 AM PDT 9:39 PM PDT
Moon 1:37 AM PDT (5/26) 12:39 PM PDT (5/26)
Length of Visible Light 15h 11m
Length of Day
14h 13m
Waning Gibbous, 49% of the Moon is Illuminated
May 26
Waning Gibbous
Jun 3
New
Jun 9
First Quarter
Jun 17
Full
Jun 25
Last Quarter

Hourly Weather History & Observations

Time (PDT) Temp. Dew Point Humidity Pressure Visibility Wind Dir Wind Speed Gust Speed Precip Events Conditions
12:56 AM 51.1 °F 45.0 °F 80% 29.79 in 10.0 mi West 17.3 mph - N/A   Clear
1:56 AM 51.1 °F 45.0 °F 80% 29.78 in 10.0 mi WSW 25.3 mph 32.2 mph N/A   Clear
2:56 AM 50.0 °F 45.0 °F 83% 29.80 in 10.0 mi NNW 9.2 mph - N/A   Mostly Cloudy
3:56 AM 51.1 °F 44.1 °F 77% 29.79 in 10.0 mi North 8.1 mph 16.1 mph N/A   Mostly Cloudy
4:49 AM 51.1 °F 44.1 °F 77% 29.79 in 10.0 mi WSW 20.7 mph 26.5 mph N/A   Scattered Clouds
4:56 AM 51.1 °F 44.1 °F 77% 29.77 in 10.0 mi WSW 19.6 mph - N/A   Partly Cloudy
5:56 AM 51.1 °F 45.0 °F 80% 29.79 in 10.0 mi West 13.8 mph - N/A   Overcast
6:56 AM 52.0 °F 45.0 °F 77% 29.80 in 10.0 mi WSW 18.4 mph 27.6 mph N/A   Overcast
7:56 AM 51.1 °F 45.0 °F 80% 29.81 in 10.0 mi WSW 15.0 mph 24.2 mph N/A   Overcast
8:56 AM 54.0 °F 45.0 °F 72% 29.85 in 10.0 mi WSW 23.0 mph - N/A   Overcast
9:23 AM 54.0 °F 44.1 °F 69% 29.86 in 10.0 mi WSW 24.2 mph 31.1 mph N/A   Mostly Cloudy
9:42 AM 54.0 °F 44.1 °F 69% 29.87 in 10.0 mi WSW 20.7 mph 28.8 mph N/A   Mostly Cloudy
9:56 AM 54.0 °F 44.1 °F 69% 29.86 in 10.0 mi SW 20.7 mph 31.1 mph N/A   Mostly Cloudy
10:20 AM 55.0 °F 44.1 °F 67% 29.86 in 10.0 mi SW 23.0 mph 31.1 mph N/A   Mostly Cloudy
10:35 AM 54.0 °F 43.0 °F 66% 29.87 in 10.0 mi SW 24.2 mph 29.9 mph N/A   Mostly Cloudy
10:56 AM 55.0 °F 44.1 °F 67% 29.87 in 10.0 mi SW 20.7 mph 29.9 mph N/A   Overcast
11:56 AM 54.0 °F 44.1 °F 69% 29.88 in 10.0 mi WSW 21.9 mph 29.9 mph N/A   Overcast
12:36 PM 55.0 °F 44.1 °F 67% 29.88 in 10.0 mi WSW 26.5 mph 34.5 mph N/A   Overcast
12:56 PM 55.9 °F 44.1 °F 64% 29.88 in 10.0 mi SW 25.3 mph 33.4 mph N/A   Mostly Cloudy
1:56 PM 57.0 °F 43.0 °F 59% 29.87 in 10.0 mi SW 26.5 mph 36.8 mph N/A   Partly Cloudy
2:56 PM 57.0 °F 42.1 °F 57% 29.86 in 10.0 mi SW 24.2 mph 35.7 mph N/A   Partly Cloudy
3:56 PM 54.0 °F 42.1 °F 64% 29.86 in 10.0 mi SW 24.2 mph 34.5 mph N/A   Mostly Cloudy
4:29 PM 55.9 °F 42.1 °F 60% 29.85 in 10.0 mi SW 26.5 mph 38.0 mph N/A   Scattered Clouds
4:56 PM 55.0 °F 42.1 °F 62% 29.85 in 10.0 mi SW 24.2 mph 33.4 mph N/A   Scattered Clouds
5:23 PM 54.0 °F 42.1 °F 64% 29.86 in 10.0 mi SW 20.7 mph 27.6 mph N/A   Mostly Cloudy
5:56 PM 53.1 °F 43.0 °F 69% 29.86 in 10.0 mi SW 25.3 mph 32.2 mph N/A   Mostly Cloudy
6:05 PM 54.0 °F 43.0 °F 66% 29.85 in 10.0 mi SW 27.6 mph 35.7 mph N/A   Mostly Cloudy
6:56 PM 51.1 °F 42.1 °F 71% 29.87 in 10.0 mi WSW 20.7 mph 31.1 mph N/A   Scattered Clouds
7:56 PM 50.0 °F 39.9 °F 68% 29.90 in 10.0 mi West 20.7 mph 28.8 mph N/A   Partly Cloudy
8:56 PM - - N/A% 29.92 in - North - - N/A   Unknown
9:56 PM - - N/A% 29.92 in - North - - N/A   Unknown
10:56 PM - - N/A% 29.93 in - North - - N/A   Unknown
11:56 PM - - N/A% 29.93 in - North - - N/A   Unknown